TimeEST,TemperatureF,Dew PointF,Humidity,Sea Level PressureIn,VisibilityMPH,Wind Direction,Wind SpeedMPH,Gust SpeedMPH,PrecipitationIn,Events,Conditions,WindDirDegrees,DateUTC
12:15 AM,51.8,50.2,94,30.28,10.0,Calm,Calm,-,N/A,,Overcast,0,2012-12-04 05:15:00
12:35 AM,52.0,50.9,96,30.28,10.0,Calm,Calm,-,N/A,,Overcast,0,2012-12-04 05:35:00
1:15 AM,51.3,50.2,96,30.27,10.0,Calm,Calm,-,N/A,,Overcast,0,2012-12-04 06:15:00
1:35 AM,51.3,50.0,95,30.27,10.0,Calm,Calm,-,N/A,,Overcast,0,2012-12-04 06:35:00
1:55 AM,51.3,50.2,96,30.28,10.0,Calm,Calm,-,N/A,,Overcast,0,2012-12-04 06:55:00
2:15 AM,52.7,50.9,94,30.28,10.0,Calm,Calm,-,N/A,,Overcast,0,2012-12-04 07:15:00
2:35 AM,52.3,51.3,96,30.27,10.0,Calm,Calm,-,N/A,,Overcast,0,2012-12-04 07:35:00
2:55 AM,52.5,51.3,95,30.27,10.0,Calm,Calm,-,N/A,,Overcast,0,2012-12-04 07:55:00
3:15 AM,52.3,50.7,94,30.26,10.0,Calm,Calm,-,N/A,,Overcast,0,2012-12-04 08:15:00
3:55 AM,50.5,50.0,98,30.26,7.0,Calm,Calm,-,N/A,,Clear,0,2012-12-04 08:55:00
4:15 AM,49.5,49.1,99,30.26,5.0,Calm,Calm,-,N/A,,Scattered Clouds,0,2012-12-04 09:15:00
4:35 AM,49.1,48.9,99,30.26,0.8,Calm,Calm,-,N/A,,Mostly Cloudy,0,2012-12-04 09:35:00
4:55 AM,48.9,48.7,99,30.26,4.0,Calm,Calm,-,N/A,,Clear,0,2012-12-04 09:55:00
5:15 AM,47.8,47.7,99,30.26,0.5,Calm,Calm,-,N/A,Fog,Fog,0,2012-12-04 10:15:00
5:35 AM,47.7,47.7,100,30.26,0.8,Calm,Calm,-,N/A,,Mist,0,2012-12-04 10:35:00
5:55 AM,47.3,47.3,100,30.26,1.0,Calm,Calm,-,N/A,,Mist,0,2012-12-04 10:55:00
6:15 AM,47.3,47.3,100,30.26,0.8,Calm,Calm,-,N/A,,Mist,0,2012-12-04 11:15:00
6:35 AM,48.7,48.7,100,30.27,0.2,Calm,Calm,-,N/A,Fog,Fog,0,2012-12-04 11:35:00
7:15 AM,47.1,47.1,100,30.27,0.2,Calm,Calm,-,N/A,Fog,Fog,0,2012-12-04 12:15:00
7:35 AM,47.5,47.5,100,30.27,2.5,Calm,Calm,-,N/A,,Overcast,0,2012-12-04 12:35:00
7:55 AM,48.9,48.9,100,30.28,2.0,Calm,Calm,-,N/A,,Overcast,0,2012-12-04 12:55:00
8:15 AM,50.7,50.7,100,30.27,4.0,SE,3.5,-,N/A,,Overcast,140,2012-12-04 13:15:00
8:35 AM,53.8,53.6,99,30.28,4.0,SE,4.6,-,N/A,,Overcast,140,2012-12-04 13:35:00
8:55 AM,54.9,54.0,97,30.28,5.0,SE,3.5,-,N/A,,Overcast,140,2012-12-04 13:55:00
9:15 AM,55.0,53.2,94,30.28,7.0,Calm,Calm,-,N/A,,Scattered Clouds,0,2012-12-04 14:15:00
9:35 AM,57.4,53.8,88,30.28,7.0,Calm,Calm,-,N/A,,Clear,0,2012-12-04 14:35:00
9:55 AM,59.9,54.3,82,30.28,10.0,Calm,Calm,-,N/A,,Clear,0,2012-12-04 14:55:00
10:15 AM,63.0,54.7,74,30.28,10.0,South,4.6,-,N/A,,Clear,170,2012-12-04 15:15:00
10:35 AM,65.3,54.5,68,30.27,10.0,South,6.9,-,N/A,,Clear,170,2012-12-04 15:35:00
10:55 AM,66.4,54.1,65,30.26,10.0,South,5.8,-,N/A,,Clear,170,2012-12-04 15:55:00
11:15 AM,68.0,54.1,61,30.25,10.0,SSW,4.6,-,N/A,,Clear,200,2012-12-04 16:15:00
11:35 AM,70.0,53.6,56,30.24,10.0,South,6.9,-,N/A,,Clear,190,2012-12-04 16:35:00
11:55 AM,71.6,53.2,52,30.23,10.0,SSW,5.8,-,N/A,,Clear,200,2012-12-04 16:55:00
12:15 PM,72.5,52.0,48,30.22,10.0,SSW,8.1,-,N/A,,Clear,200,2012-12-04 17:15:00
12:35 PM,73.4,51.1,45,30.20,10.0,SW,9.2,-,N/A,,Clear,220,2012-12-04 17:35:00
12:55 PM,74.3,50.2,43,30.19,10.0,South,11.5,16.1,N/A,,Clear,190,2012-12-04 17:55:00
1:15 PM,74.1,49.8,42,30.18,10.0,SSW,10.4,16.1,N/A,,Clear,200,2012-12-04 18:15:00
1:35 PM,74.5,49.8,42,30.17,10.0,SSW,10.4,17.3,N/A,,Clear,210,2012-12-04 18:35:00
1:55 PM,72.9,50.2,45,30.17,10.0,SSW,10.4,-,N/A,,Clear,200,2012-12-04 18:55:00
2:15 PM,73.0,49.6,44,30.16,10.0,SW,8.1,18.4,N/A,,Clear,220,2012-12-04 19:15:00
2:35 PM,73.4,50.0,44,30.16,10.0,SW,10.4,17.3,N/A,,Clear,230,2012-12-04 19:35:00
2:55 PM,73.4,49.8,43,30.15,10.0,South,10.4,17.3,N/A,,Clear,190,2012-12-04 19:55:00
3:15 PM,72.3,49.1,44,30.15,10.0,SSW,9.2,17.3,N/A,,Clear,200,2012-12-04 20:15:00
3:35 PM,71.6,50.0,46,30.15,10.0,SSW,6.9,-,N/A,,Clear,200,2012-12-04 20:35:00
3:55 PM,71.4,49.6,46,30.15,10.0,SSW,6.9,-,N/A,,Clear,210,2012-12-04 20:55:00
4:15 PM,70.2,50.0,49,30.15,10.0,SSW,4.6,-,N/A,,Clear,200,2012-12-04 21:15:00
4:35 PM,69.3,50.4,51,30.15,10.0,SSW,4.6,-,N/A,,Clear,200,2012-12-04 21:35:00
4:55 PM,68.4,50.4,53,30.15,10.0,South,4.6,-,N/A,,Clear,190,2012-12-04 21:55:00
5:15 PM,67.5,50.5,55,30.15,10.0,SSW,5.8,-,N/A,,Clear,200,2012-12-04 22:15:00
5:35 PM,67.1,50.7,56,30.15,10.0,SSW,5.8,-,N/A,,Clear,200,2012-12-04 22:35:00
5:55 PM,66.4,50.5,57,30.15,10.0,South,5.8,-,N/A,,Clear,190,2012-12-04 22:55:00
6:15 PM,66.4,50.9,57,30.14,10.0,SSW,6.9,-,N/A,,Clear,200,2012-12-04 23:15:00
6:35 PM,66.0,50.9,58,30.14,10.0,South,4.6,-,N/A,,Clear,170,2012-12-04 23:35:00
6:55 PM,64.9,50.5,60,30.14,10.0,South,4.6,-,N/A,,Mostly Cloudy,190,2012-12-04 23:55:00
7:15 PM,64.8,50.5,60,30.14,10.0,South,3.5,-,N/A,,Mostly Cloudy,190,2012-12-05 00:15:00
7:35 PM,64.9,50.5,60,30.14,10.0,SSW,4.6,-,N/A,,Mostly Cloudy,210,2012-12-05 00:35:00
7:55 PM,65.3,50.5,59,30.13,10.0,SSW,8.1,-,N/A,,Overcast,210,2012-12-05 00:55:00
8:15 PM,65.5,50.5,58,30.13,10.0,South,3.5,-,N/A,,Overcast,190,2012-12-05 01:15:00
8:35 PM,64.6,50.4,60,30.13,10.0,South,4.6,-,N/A,,Mostly Cloudy,190,2012-12-05 01:35:00
8:55 PM,64.9,50.4,59,30.12,10.0,SSW,4.6,-,N/A,,Mostly Cloudy,200,2012-12-05 01:55:00
9:15 PM,65.5,50.0,57,30.12,10.0,SSW,8.1,-,N/A,,Overcast,210,2012-12-05 02:15:00
9:35 PM,66.0,49.8,56,30.12,10.0,SSW,8.1,-,N/A,,Mostly Cloudy,210,2012-12-05 02:35:00
9:55 PM,64.8,49.3,57,30.11,10.0,SSW,4.6,-,N/A,,Scattered Clouds,210,2012-12-05 02:55:00
10:15 PM,64.6,49.5,58,30.11,10.0,SSW,5.8,-,N/A,,Mostly Cloudy,200,2012-12-05 03:15:00
10:35 PM,64.6,49.3,58,30.10,10.0,SSW,6.9,-,N/A,,Overcast,200,2012-12-05 03:35:00
10:55 PM,64.4,49.5,58,30.10,10.0,South,6.9,-,N/A,,Overcast,190,2012-12-05 03:55:00
11:15 PM,65.1,49.5,57,30.10,10.0,SW,5.8,-,N/A,,Mostly Cloudy,220,2012-12-05 04:15:00
11:35 PM,64.8,49.5,58,30.09,10.0,SSW,8.1,-,N/A,,Mostly Cloudy,210,2012-12-05 04:35:00
11:55 PM,64.6,49.5,58,30.08,10.0,SSW,6.9,-,N/A,,Mostly Cloudy,210,2012-12-05 04:55:00